CZ-4B DEB, 43661

Orbit data source: Space-Track

CZ-4B DEB, 43661 is space debris in SSO originally from a launch on Wed, 24 Oct 2018 UTC launched from the Taiyaun Space Center, China (TSC). Debris objects in space refer to the collection of defunct objects orbiting the Earth. Examples of debris include non-operational satellites, rocket bodies, and fragments generated from explosions, collisions, or faulty payload assembly.

Loading next visibility...
Identifier
43661, 2018-081E
Orbit
SSO
Country
Flag of CNCN / PRC
Related business
Manufacturer
SAST
Mission
Spacecraft
Bus & Motor
Unknown
Mass
Unknown
Launch date (UTC)
2018-10-24 (7 years ago)
Launch vehicle
Unknown
Launch site
Taiyaun Space Center, China (TSC)
Object type
Payload
Rocket body
Debris
Shape & HBR
Unknown
Radar Cross Section
Small (<0.1 m²)

Expand to show TLE details & history
Last TLE update: 1 day ago

TLE from 1 day ago
0 CZ-4B DEB
1 43661U 18081E   25257.30441204  .00000088  00000-0  10836-3 0  9994
2 43661  99.1584 287.3392 0013082   8.0786 352.0581 13.89368336349296
Epoch: 2025-09-14T07:18Z
TLE epoch observation values (Epoch: 2025-09-14T07:18:21.2Z)
Latitude
0.00005°
Longitude
-175.77448°
Altitude
924.232 km
Speed
7.395 km/s
True Right ascension
19h 09m 21s
True Declination
0° 00' 00"
Sunlit
Object was in daylight at epoch
Visualization orbit readout
Latitude
Unknown
Longitude
Unknown
Altitude
Unknown
Speed
Unknown
Apparent Right ascension
Unknown
Apparent Declination
Unknown
Sunlit
N/A
Visualization observer readout
Local Sidereal Time
23:27:13
Azimuth
Unknown
Elevation
Unknown
Doppler factor
Unknown
Orbital elements
Apogee altitude
937.625 km
Perigee altitude
918.509 km
Semi-major axis
7,306.204 km
Eccentricity
0.00131
Inclination
99.1584°
RAAN
287.3392°
Arg. of periapsis
8.0786°
True anomaly
352.03735°
Mean anomaly
352.0581°
Eccentric anomaly
352.04773°
Mean motion
3.47541 °/min
Orbital period
103.59 mins
BSTAR
0.00010836
Loading maneuver chart data...
Computing Atmospheric mass density...
Loading historical data...
Loading historical data...
Loading historical data...
Loading historical data...
Loading historical data...
Loading historical data...
Loading historical data...

Documentation

Showing up to 5 results
|